Hourly Weather Roundup
Issued by NWS Central Illinois

Home | Current Version | Previous Version | Text Only | Print | Product List | Glossary On
Versions: 1 2 3 4 5 6 7 8 9 10 11 12 13 14 15 16 17 18 19 20 21 22 23 24 25 26 27 28 29 30 31 32 33 34 35 36 37 38 39 40 41 42 43 44 45 46 47 48 49 50
000
NZUS43 KILX 250510
HWRILX

AREA WEATHER ROUNDUP
NATIONAL WEATHER SERVICE, LINCOLN IL
1100 PM CST FRI FEB 24 2017


CITY           SKY/WX    TMP DP  RH WIND       PRES   REMARKS
BLOOMINGTON    CLOUDY    37  32  82 W15       29.66S WCI  28
CHAMPAIGN      CLOUDY    41  32  70 W18G28    29.68S WCI  32
DECATUR        CLOUDY    38  31  76 W21G30    29.71R WCI  28
EFFINGHAM      CLOUDY    42  35  74 W18G28    29.75R WCI  34
FLORA          CLEAR     45  30  56 W14G22    29.74S
GALESBURG      LGT SNOW  31  31  99 W13       29.71R WCI  21
JACKSONVILLE   MIX PCPN  32  30  92 W16G28    29.77S WCI  21
LACON          LGT RAIN  32  32  99 NW9       29.67S WCI  24
LAWRENCEVILLE  CLEAR     44  33  65 W12G22    29.73S
LITCHFIELD     PTCLDY    33  25  71 W22G33    29.78S WCI  21
$$


CITY           SKY/WX    TMP DP  RH WIND       PRES   REMARKS
LINCOLN        LGT RAIN  37  35  94 W10G18    29.70S WCI  29
MACOMB         LGT SNOW  31  30  96 W18       29.77R WCI  19
MATTOON        CLOUDY    40  32  73 W16G33    29.71R WCI  31
MT CARMEL AP   CLEAR     43  33  67 W10       29.73S
OLNEY-NOBLE AP CLEAR     43  32  65 W13G21    29.74R
PARIS          MOCLDY    40  35  80 W23G29    29.69S WCI  30
PEORIA         FLURRIES  35  31  85 W14       29.69S WCI  26
PONTIAC        CLOUDY    38  35  87 W20G25    29.65R WCI  28
RANTOUL        CLOUDY    41  37  86 W16G23    29.66S WCI  33
SPRINGFIELD    LGT SNOW  34  31  88 W25G33    29.74R FOG     WCI  21
TAYLORVILLE    CLOUDY    36  29  76 W17G25    29.75S WCI  26
$$

...REGIONAL REPORTS...


CITY           SKY/WX    TMP DP  RH WIND       PRES   REMARKS
CHICAGO O`HARE CLOUDY    34  30  85 NW13      29.59R WCI  25
KANKAKEE       CLOUDY    39  33  78 W17       29.63R WCI  30
MOLINE         LGT SNOW  31  26  82 NW16G24   29.71R WCI  20
MOUNT STERLING CLOUDY    29  25  84 W18G31    29.79R WCI  17
MOUNT VERNON   PTCLDY    44  30  57 W14G22    29.77R
PITTSFIELD     CLOUDY    32  28  86 W22G31    29.82R WCI  19
QUINCY         CLOUDY    29  24  82 NW22G32   29.82R WCI  15
ROCKFORD       LGT SNOW  29  25  85 NW10      29.65R FOG     WCI  20
$$


CITY           SKY/WX    TMP DP  RH WIND       PRES   REMARKS
BURLINGTON     LGT SNOW  28  25  88 NW20G28   29.77R FOG     WCI  15
CEDAR RAPIDS   LGT SNOW  23  21  92 N23G30    29.78R FOG     WCI   7
DES MOINES     FLURRIES  24  16  71 NW18G28   29.91R WCI  10
KIRKSVILLE     CLOUDY    25  21  85 NW17G25   29.89R WCI  12
OTTUMWA        LGT SNOW  25  21  85 NW15      29.85R FOG     WCI  13
ST LOUIS       CLOUDY    36  22  56 W25G33    29.84R WCI  24
$$


CITY           SKY/WX    TMP DP  RH WIND       PRES   REMARKS
TERRE HAUTE    CLEAR     43  32  65 W10       29.69S
EVANSVILLE     PTCLDY    47  34  60 W10G18    29.75R
INDIANAPOLIS   PTCLDY    43  34  70 W17G24    29.64F
LAFAYETTE      CLOUDY    42  37  82 W14G24    29.63S WCI  35
MADISON        FLURRIES  24  21  88 N16       29.63S WCI  11
MILWAUKEE      CLOUDY    29  23  78 NW13      29.58S WCI  19
$$






USA.gov is the U.S. government's official web portal to all federal, state and local government web resources and services.